This is the latest recevied weather packets stored in our database for station/object K7TSD. If no packets are shown the sender has not sent any weather packets the latest 10 day(s).
| Time | Temp. | Humidity | Pressure | Rain* | Wind** | Luminosity | Snow |
|---|---|---|---|---|---|---|---|
| 1778156751 | 10.56° C | 57% | 1008.9 hPa | 0 mm | - | 25 W/m² | - |
| 1778156447 | 10.56° C | 58% | 1008.5 hPa | 0 mm | - | 27 W/m² | - |
| 1778156143 | 10.56° C | 58% | 1008.7 hPa | 0 mm | - | 22 W/m² | - |
| 1778155839 | 10° C | 59% | 1008.6 hPa | 0 mm | - | 16 W/m² | - |
| 1778155530 | 10.56° C | 57% | 1008.7 hPa | 0 mm | - | 11 W/m² | - |
| 1778155227 | 10° C | 59% | 1008.6 hPa | 0 mm | - | 7 W/m² | - |
| 1778154923 | 10.56° C | 58% | 1008.7 hPa | 0 mm | - | 4 W/m² | - |
| 1778154619 | 10° C | 58% | 1008.5 hPa | 0 mm | - | 1 W/m² | - |
| 1778154315 | 10° C | 59% | 1008.6 hPa | 0 mm | - | 0 W/m² | - |
| 1778154012 | 10.56° C | 59% | 1008.8 hPa | 0 mm | - | 0 W/m² | - |
| 1778153709 | 10.56° C | 58% | 1008.8 hPa | 0 mm | - | 0 W/m² | - |
| 1778153407 | 11.11° C | 55% | 1008.6 hPa | 0 mm | - | 0 W/m² | - |
| 1778153104 | 11.67° C | 53% | 1008.6 hPa | 0 mm | - | 0 W/m² | - |
| 1778152801 | 11.67° C | 52% | 1008.4 hPa | 0 mm | - | 0 W/m² | - |
| 1778152498 | 11.67° C | 51% | 1008.4 hPa | 0 mm | - | 0 W/m² | - |
| 1778152194 | 11.67° C | 50% | 1008.4 hPa | 0 mm | - | 0 W/m² | - |
| 1778151890 | 9.44° C | 50% | 1008.6 hPa | 0 mm | - | 0 W/m² | - |
| 1778151587 | 8.89° C | 50% | 1008.5 hPa | 0 mm | - | 0 W/m² | - |
| 1778151284 | 8.89° C | 50% | 1008.5 hPa | 0 mm | - | 0 W/m² | - |
| 1778150981 | 8.33° C | 48% | 1008.6 hPa | 0 mm | - | 0 W/m² | - |
| 1778150678 | 8.89° C | 49% | 1008.6 hPa | 0 mm | - | 0 W/m² | - |
| 1778150373 | 8.89° C | 49% | 1008.6 hPa | 0 mm | - | 0 W/m² | - |
| 1778150070 | 8.89° C | 46% | 1008.5 hPa | 0 mm | - | 0 W/m² | - |
| 1778149766 | 8.33° C | 48% | 1008.5 hPa | 0 mm | - | 0 W/m² | - |
| 1778149463 | 8.33° C | 48% | 1008.1 hPa | 0 mm | - | 0 W/m² | - |
* Rain latest hour (hover to see other rain measurements)
** Current wind speed in m/s (hover to see current wind gust speed)